SCP
0 0 0 0 0 0 0 0 0 0 0 0 0 0 0 0 0 0 0 0 0 0 0 0 0 0 0 -0 0 0 0 0 0 -0 0 0 0 -0 -0 0 0 0 0 0
0 0 0 0 0 0 0 0 0 0 0 0 0 0 0 0 0 0 0 0 0 0 0 0 0 0 0 0 -0 0 0 0 0 0 0 0 0 -0 0 0 0 0 0 0
0 0 0 0 0 0 0 0 0 0 0 0 0 0 0 0 0 0 0 0 0 0 0 0 0 0 0 0 -0 -0 0 -0 0 0 -0 0 0 0 -0 0 0 0 0 0
0 0 0 0 0 0 0 0 0 0 0 0 0 0 0 0 0 0 0 0 0 0 0 -0 0 0 -0 -0 -0 -0 0 0 -0 -0 -0 -0 -0 -0 -0 -0 -0 0 0 0
0 0 0 0 0 0 0 0 0 0 -0 0 0 0 0 0 0 0 0 0 0 0 -0 0 -0 -0 0 0 0 0 -0 0 0 -0 0 -0 -0 -0 -0 -0 0 -0 -0 0
0 0 0 0 0 0 0 0 0 0 0 0 0 0 0 0 0 0 0 0 0 0 -0 -0 -0 -0 -0 0 0 0 0 -0 0 0 -0 -0 -0 -0 -0 0 0 -0 0 0
0 0 0 0 0 0 0 0 0 0 0 0 0 0 0 0 0 0 -0 -0 -0 0 -0 -0 -0 -0 0 0 0 0 0 -0 -0 -0 -0 0 0 0 -0 0 0 0 -0 0
0 0 0 0 0 0 0 0 0 0 0 0 0 0 0 0 0 0 0 0 0 -0 -0 -0 -0 0 0 0 0 0 0 0 0 0 0 -0 0 0 0 0 0 0 -0 0
0 0 0 0 0 0 0 0 0 0 0 0 0 0 0 0 0 0 0 -0 0 -0 0 -0 0 -0 0 0 0 0 0 0 0 0 0 0 0 0 0 0 -0 0 0 0
0 0 0 0 0 0 0 0 0 0 0 0 0 0 0 0 0 0 0 0 0 -0 -0 0 0 -0 -0 -0 0 0 0 0 0 0 0 0 0 0 -0 -0 0 -0 0 0
0 0 0 0 0 0 0 0 0 0 0 0 0 0 0 0 0 0 0 0 0 -0 0 0 -0 -0 -0 -0 0 0 0 0 0 0 0 0 0 -0 0 0 -0 -0 0 0
0 0 0 0 0 0 0 0 0 0 0 0 0 0 -0 -0 -0 0 0 0 -0 0 0 -0 -0 0 0 -0 -0 0 0 0 0 0 0 -0 0 0 -0 -0 -0 -0 0 0
0 0 0 0 0 0 0 0 0 0 0 0 0 0 0 0 0 0 0 0 0 0 0 -0 0 0 0 -0 0 0 0 0 0 0 0 -0 -0 -0 -0 -0 0 0 0 0
0 0 0 0 0 0 0 0 0 0 0 0 0 0 0 0 0 -0 -0 -0 0 0 0 -0 0 0 0 0 0 0 0 0 0 0 -0 -0 0 -0 -0 -0 0 0 0 0
0 0 0 0 0 0 0 0 0 0 0 0 0 0 0 0 0 -0 -0 -0 -0 0 0 0 0 0 -0 0 0 0 0 0 0 0 -0 -0 -0 -0 0 -0 0 0 0 0
0 0 0 0 0 0 0 0 0 0 0 0 0 0 0 0 0 0 -0 -0 -0 0 0 0 0 0 0 -0 0 -0 0 0 0 -0 0 0 0 0 -0 0 0 0 0 0
0 0 0 0 0 0 0 0 0 0 0 0 0 0 0 0 0 0 0 0 0 0 0 0 0 0 0 -0 -0 -0 -0 -0 -0 -0 0 -0 -0 0 0 0 0 0 0 0
0 0 0 0 0 0 0 0 0 0 0 0 0 0 0 0 0 0 0 0 0 0 0 0 0 0 -0 -0 -0 -0 -0 -0 -0 -0 0 -0 -0 0 0 0 0 0 0 0
0 0 0 0 0 0 0 0 0 0 0 0 0 0 0 0 0 0 0 0 0 0 0 0 0 0 -0 -0 -0 -0 -0 -0 -0 -0 0 -0 -0 0 0 0 0 0 0 0
0 0 0 0 0 0 0 0 0 0 0 0 0 0 -0 -0 -0 0 0 0 0 0 0 0 0 -0 -0 -0 -0 -0 -0 -0 -0 -0 0 0 0 0 0 0 0 0 0 0
0 0 0 0 0 0 0 0 0 0 0 0 0 0 -0 -0 -0 -0 0 0 0 0 0 0 -0 -0 0 0 -0 -0 -0 -0 -0 -0 -0 -0 0 0 0 0 0 0 0 0
0 0 0 0 0 0 0 0 0 0 0 0 0 0 0 -0 -0 0 0 0 0 -0 -0 0 0 -0 0 0 -0 -0 -0 -0 -0 -0 -0 0 0 0 0 0 0 0 0 0
0 0 0 0 0 0 0 0 0 0 0 0 0 0 0 0 0 0 0 -0 -0 0 -0 -0 0 -0 0 0 -0 -0 -0 -0 -0 -0 0 -0 -0 0 0 0 0 0 0 0
0 0 0 0 0 0 0 0 0 0 0 0 0 0 0 0 0 0 0 0 -0 -0 -0 -0 -0 0 0 0 0 0 -0 -0 0 0 0 0 -0 0 0 0 0 0 0 0
0 0 0 0 0 0 0 0 0 0 0 0 0 0 0 0 0 0 -0 -0 -0 -0 -0 0 -0 0 -0 0 0 -0 -0 -0 0 0 0 -0 -0 -0 -0 0 0 0 0 0
0 0 0 0 0 0 0 -0 0 0 0 0 0 0 0 -0 -0 -0 0 0 0 0 0 0 -0 -0 0 -0 0 -0 0 0 0 0 0 0 -0 -0 -0 -0 -0 0 0 0
0 0 0 0 0 -0 0 0 0 0 0 0 0 0 0 0 0 0 0 0 0 0 0 0 0 -0 0 -0 0 -0 -0 -0 0 0 -0 0 0 0 -0 -0 -0 -0 -0 0
Wind_Speed_500mb
52 53 56 60 65 68 50 16 7 8 14 6 2 7 13 16 9 8 15 15 21 21 25 22 27 23 16 36 28 33 24 13 24 30 18 15 10 19 10 15 23 31 27 9
49 53 50 54 58 57 52 23 9 10 11 4 10 10 15 11 13 8 9 13 10 23 29 15 16 23 27 29 28 12 15 8 17 13 9 10 15 27 27 28 29 26 29 15
51 53 55 54 53 49 34 12 6 1 7 7 11 18 7 8 8 22 12 20 30 28 26 23 20 36 22 29 40 31 14 22 27 26 36 26 21 22 24 28 22 33 35 47
51 52 51 54 51 39 19 7 5 7 7 8 19 16 14 16 11 8 21 13 14 22 17 35 42 27 39 48 46 43 10 20 33 35 39 36 38 37 37 38 38 39 38 43
53 53 53 49 47 31 7 11 10 10 31 13 16 2 7 15 13 21 26 23 30 28 35 36 47 45 37 13 17 14 10 15 27 34 32 35 41 42 43 44 45 43 47 54
55 54 47 41 37 15 5 7 8 5 15 11 10 10 11 24 30 22 24 24 30 36 40 48 60 64 61 41 20 14 8 14 16 29 28 24 29 34 38 36 39 36 41 48
53 48 40 34 23 8 14 17 17 2 9 8 14 20 29 25 31 32 51 42 32 30 51 67 58 46 38 28 22 19 10 21 16 14 18 20 24 6 21 19 25 33 38 44
53 42 37 27 12 10 15 20 14 8 8 17 31 10 27 33 35 32 40 32 27 40 39 20 20 9 8 13 12 18 21 9 7 8 18 31 37 11 12 16 35 37 47 40
47 42 37 28 17 15 16 15 25 20 9 9 10 43 31 17 15 24 22 28 29 21 8 8 8 8 10 8 19 12 2 15 8 9 10 9 5 9 10 14 31 26 20 28
44 39 35 29 20 15 16 19 23 23 18 30 14 17 22 13 11 9 30 17 18 8 9 3 6 7 14 10 13 12 7 5 20 27 14 14 3 17 19 11 10 40 36 36
44 40 35 30 21 16 18 23 25 27 27 52 51 45 35 25 17 7 17 22 3 13 6 6 6 5 7 8 18 16 6 8 4 6 10 6 18 21 9 19 54 44 45 40
44 41 38 31 26 16 19 30 22 28 35 46 60 62 60 62 57 40 12 12 15 10 6 5 6 6 7 12 8 9 4 5 6 6 8 31 42 21 49 52 54 61 49 44
44 41 37 33 28 23 19 28 26 32 36 51 25 7 9 17 18 27 21 17 17 12 12 5 6 10 6 6 9 13 11 18 5 8 9 29 43 29 32 38 55 68 53 45
45 41 38 35 30 27 23 27 23 26 19 11 9 13 34 30 37 39 50 27 10 13 9 8 6 7 10 7 11 14 13 13 7 14 26 36 4 39 44 51 52 20 11 13
45 42 40 37 34 30 29 33 32 33 27 10 26 51 9 9 19 32 39 44 36 18 6 7 6 10 9 8 7 15 8 17 5 7 33 24 18 44 43 54 49 23 17 7
43 40 38 41 36 26 14 9 6 7 29 9 8 15 11 10 11 18 29 33 29 16 9 7 10 15 6 5 7 10 24 28 27 18 39 35 35 38 45 54 45 27 24 24
41 43 43 35 26 24 18 8 7 11 16 8 11 11 7 9 12 10 14 23 15 18 9 13 10 10 13 5 8 15 29 32 23 26 37 31 35 35 43 50 42 36 42 44
44 44 35 25 15 17 20 15 27 17 16 9 6 9 12 10 9 9 15 12 16 16 10 11 8 9 8 8 8 18 22 21 20 28 29 30 35 36 38 38 33 48 54 48
44 37 19 9 4 5 7 10 13 19 23 8 8 5 6 2 10 7 13 10 7 10 7 8 8 4 9 7 12 18 23 22 24 26 34 39 41 39 38 39 42 44 47 36
38 16 6 6 7 12 16 11 10 13 16 14 9 17 12 21 12 7 4 11 5 6 10 6 5 8 21 15 6 9 14 19 21 30 33 36 41 41 37 33 31 31 40 40
27 14 7 18 16 8 10 9 12 15 9 14 16 25 16 9 9 6 5 3 4 5 4 6 4 5 2 8 7 7 10 14 17 19 21 25 23 27 32 33 31 38 44 52
32 30 35 17 4 14 10 9 8 10 8 12 10 5 11 9 9 7 4 5 4 4 6 6 5 1 8 9 8 7 9 12 16 18 22 28 30 33 32 26 26 30 32 35
18 7 8 8 8 9 11 10 8 8 8 6 3 2 6 9 10 8 5 7 5 4 5 5 5 5 13 11 8 6 7 11 14 15 22 28 31 35 36 31 25 23 26 28
7 7 9 8 7 8 7 12 12 9 6 6 15 7 5 11 9 7 7 5 3 5 5 4 5 4 14 16 9 6 5 8 13 15 21 28 29 33 36 37 32 25 26 26
8 8 8 7 14 25 25 24 26 16 17 16 15 9 10 4 2 5 3 7 6 6 3 7 9 7 15 17 14 8 5 8 11 13 18 24 28 31 33 35 33 33 32 31
5 9 11 19 27 21 18 21 19 25 22 23 15 8 5 7 2 8 9 3 4 3 3 9 7 2 16 19 14 12 8 9 10 11 13 18 23 27 28 31 35 36 37 37
6 8 19 22 25 29 29 28 22 22 23 8 8 6 5 2 3 4 3 2 7 16 14 8 6 2 11 13 11 12 15 11 11 12 11 14 18 20 23 31 30 33 37 39
Wind_Direction_500mb
342 346 352 350 349 348 360 356 267 316 356 256 228 288 343 329 292 219 273 278 279 283 297 291 290 287 291 316 312 301 327 290 286 290 278 225 175 245 342 267 232 249 273 321
343 342 348 346 349 352 348 335 295 326 7 342 325 328 300 268 283 285 289 282 272 304 288 297 292 277 296 295 299 313 353 269 301 288 209 201 217 244 243 244 273 260 270 244
344 343 340 343 348 351 350 332 302 151 39 12 321 338 314 300 265 285 282 277 293 286 291 280 276 286 291 292 290 297 314 268 258 274 293 320 295 274 255 270 263 263 259 263
338 336 335 337 339 346 4 340 36 348 307 328 324 305 286 293 308 264 295 284 279 296 288 300 290 296 300 298 282 263 252 260 272 271 276 275 275 270 265 257 259 260 263 267
340 335 330 332 334 343 12 347 348 326 295 301 293 25 295 305 312 314 289 273 295 301 285 287 289 298 300 263 290 264 229 261 274 275 265 266 268 267 261 257 255 254 259 264
337 336 337 341 341 340 1 316 323 291 301 307 301 305 331 314 316 301 270 285 300 291 287 294 294 287 277 262 245 254 244 264 277 268 274 295 278 267 265 260 254 254 254 260
334 337 342 350 354 2 310 322 296 241 288 290 307 295 298 309 306 291 292 293 283 288 302 299 288 263 256 253 266 240 235 232 250 273 299 259 254 342 316 304 297 288 270 261
331 329 332 344 347 346 306 292 291 237 275 270 294 261 321 296 303 296 298 289 313 306 304 298 306 202 202 211 216 208 224 234 259 240 230 277 295 295 306 309 289 292 275 262
328 325 322 321 318 291 307 285 263 263 280 242 341 303 292 299 306 304 299 318 311 303 283 305 297 346 319 323 327 191 191 214 250 243 249 262 41 163 358 322 276 27 328 313
330 328 325 321 318 268 274 280 269 267 262 276 259 286 302 279 263 268 297 343 317 255 314 350 323 317 332 316 309 318 300 212 223 247 257 262 6 7 323 226 344 322 330 320
329 326 324 320 315 277 270 274 272 261 270 279 275 274 260 249 230 245 302 319 84 288 325 331 7 291 315 291 287 294 288 302 297 261 239 262 1 318 248 332 312 299 305 297
331 327 323 322 317 294 267 274 270 283 263 266 285 278 264 255 253 258 239 272 326 276 306 337 314 277 264 301 290 319 291 258 289 246 299 288 295 257 278 278 274 284 287 280
331 330 325 323 316 308 259 267 277 283 283 298 273 277 276 235 219 224 221 241 217 227 239 302 279 266 277 279 286 311 296 310 262 307 280 294 311 301 302 298 280 283 270 256
328 327 327 326 321 314 299 266 252 264 276 280 269 294 294 272 244 232 230 240 249 265 254 240 256 257 241 274 283 289 269 345 276 259 274 310 266 320 337 327 328 346 297 263
324 324 323 312 310 301 292 281 264 241 234 282 293 304 278 242 225 229 226 230 240 263 261 222 243 252 278 260 269 255 316 328 268 284 302 317 318 337 341 340 341 7 9 352
325 320 317 310 302 295 296 304 232 249 219 259 288 308 274 246 252 226 217 220 225 220 244 239 241 251 234 282 280 332 314 325 327 328 330 313 331 329 344 341 346 15 24 44
324 320 315 308 291 262 211 240 234 294 191 252 281 282 230 230 216 189 192 201 205 214 235 225 248 253 203 250 285 318 340 344 341 339 344 347 355 346 346 345 0 27 50 60
325 323 314 303 295 249 261 264 251 239 205 246 267 268 260 197 229 207 185 191 206 217 245 242 239 261 223 251 327 343 353 339 351 359 11 0 349 349 346 353 7 36 39 48
330 324 312 295 275 227 252 229 267 253 220 263 238 265 302 217 265 257 195 191 215 217 230 240 218 199 242 318 350 5 2 359 358 4 16 2 358 352 355 7 13 31 33 37
335 336 296 254 224 249 280 279 212 203 202 230 248 236 250 302 281 254 210 187 227 235 218 225 244 260 265 260 294 359 19 7 13 16 14 5 353 352 359 8 22 18 27 45
355 334 280 273 272 261 224 241 216 186 221 216 227 226 239 250 248 285 329 325 264 265 89 282 303 270 89 139 144 73 56 27 22 30 17 18 4 360 1 7 18 28 27 35
313 297 292 299 253 224 235 211 208 224 238 187 233 190 221 253 240 256 183 249 236 268 336 266 261 265 138 162 137 99 66 47 26 33 25 20 22 22 26 32 33 33 36 46
310 273 264 238 222 240 228 214 219 215 212 76 114 182 272 224 221 251 233 232 242 327 249 270 280 33 154 160 147 121 78 48 35 43 33 24 28 32 38 43 52 47 43 46
283 276 271 241 213 244 261 294 351 346 111 283 274 195 238 224 178 227 227 155 212 233 232 263 15 265 183 162 170 148 99 61 33 35 38 37 31 28 33 38 47 61 61 54
270 264 257 241 323 314 305 316 320 324 316 312 310 253 173 267 354 258 237 190 233 218 245 29 3 301 200 181 171 181 149 90 55 36 33 36 39 39 39 39 44 55 62 64
272 265 295 315 319 332 338 344 343 333 327 307 269 268 267 228 236 201 203 209 229 354 21 13 340 251 199 197 185 181 180 116 91 67 62 53 53 50 53 50 50 51 60 64
294 283 297 297 314 311 314 322 320 319 308 295 296 253 269 335 271 284 9 188 354 344 11 25 28 134 194 186 186 198 167 151 121 106 78 65 69 72 66 59 55 58 58 66
Wind_Speed_850mb
52 53 56 60 65 68 50 16 7 8 14 6 2 7 13 16 9 8 15 15 21 21 25 22 27 23 16 36 28 33 24 13 24 30 18 15 10 19 10 15 23 31 27 9
49 53 50 54 58 57 52 23 9 10 11 4 10 10 15 11 13 8 9 13 10 23 29 15 16 23 27 29 28 12 15 8 17 13 9 10 15 27 27 28 29 26 29 15
51 53 55 54 53 49 34 12 6 1 7 7 11 18 7 8 8 22 12 20 30 28 26 23 20 36 22 29 40 31 14 22 27 26 36 26 21 22 24 28 22 33 35 47
51 52 51 54 51 39 19 7 5 7 7 8 19 16 14 16 11 8 21 13 14 22 17 35 42 27 39 48 46 43 10 20 33 35 39 36 38 37 37 38 38 39 38 43
53 53 53 49 47 31 7 11 10 10 31 13 16 2 7 15 13 21 26 23 30 28 35 36 47 45 37 13 17 14 10 15 27 34 32 35 41 42 43 44 45 43 47 54
55 54 47 41 37 15 5 7 8 5 15 11 10 10 11 24 30 22 24 24 30 36 40 48 60 64 61 41 20 14 8 14 16 29 28 24 29 34 38 36 39 36 41 48
53 48 40 34 23 8 14 17 17 2 9 8 14 20 29 25 31 32 51 42 32 30 51 67 58 46 38 28 22 19 10 21 16 14 18 20 24 6 21 19 25 33 38 44
53 42 37 27 12 10 15 20 14 8 8 17 31 10 27 33 35 32 40 32 27 40 39 20 20 9 8 13 12 18 21 9 7 8 18 31 37 11 12 16 35 37 47 40
47 42 37 28 17 15 16 15 25 20 9 9 10 43 31 17 15 24 22 28 29 21 8 8 8 8 10 8 19 12 2 15 8 9 10 9 5 9 10 14 31 26 20 28
44 39 35 29 20 15 16 19 23 23 18 30 14 17 22 13 11 9 30 17 18 8 9 3 6 7 14 10 13 12 7 5 20 27 14 14 3 17 19 11 10 40 36 36
44 40 35 30 21 16 18 23 25 27 27 52 51 45 35 25 17 7 17 22 3 13 6 6 6 5 7 8 18 16 6 8 4 6 10 6 18 21 9 19 54 44 45 40
44 41 38 31 26 16 19 30 22 28 35 46 60 62 60 62 57 40 12 12 15 10 6 5 6 6 7 12 8 9 4 5 6 6 8 31 42 21 49 52 54 61 49 44
44 41 37 33 28 23 19 28 26 32 36 51 25 7 9 17 18 27 21 17 17 12 12 5 6 10 6 6 9 13 11 18 5 8 9 29 43 29 32 38 55 68 53 45
45 41 38 35 30 27 23 27 23 26 19 11 9 13 34 30 37 39 50 27 10 13 9 8 6 7 10 7 11 14 13 13 7 14 26 36 4 39 44 51 52 20 11 13
45 42 40 37 34 30 29 33 32 33 27 10 26 51 9 9 19 32 39 44 36 18 6 7 6 10 9 8 7 15 8 17 5 7 33 24 18 44 43 54 49 23 17 7
43 40 38 41 36 26 14 9 6 7 29 9 8 15 11 10 11 18 29 33 29 16 9 7 10 15 6 5 7 10 24 28 27 18 39 35 35 38 45 54 45 27 24 24
41 43 43 35 26 24 18 8 7 11 16 8 11 11 7 9 12 10 14 23 15 18 9 13 10 10 13 5 8 15 29 32 23 26 37 31 35 35 43 50 42 36 42 44
44 44 35 25 15 17 20 15 27 17 16 9 6 9 12 10 9 9 15 12 16 16 10 11 8 9 8 8 8 18 22 21 20 28 29 30 35 36 38 38 33 48 54 48
44 37 19 9 4 5 7 10 13 19 23 8 8 5 6 2 10 7 13 10 7 10 7 8 8 4 9 7 12 18 23 22 24 26 34 39 41 39 38 39 42 44 47 36
38 16 6 6 7 12 16 11 10 13 16 14 9 17 12 21 12 7 4 11 5 6 10 6 5 8 21 15 6 9 14 19 21 30 33 36 41 41 37 33 31 31 40 40
27 14 7 18 16 8 10 9 12 15 9 14 16 25 16 9 9 6 5 3 4 5 4 6 4 5 2 8 7 7 10 14 17 19 21 25 23 27 32 33 31 38 44 52
32 30 35 17 4 14 10 9 8 10 8 12 10 5 11 9 9 7 4 5 4 4 6 6 5 1 8 9 8 7 9 12 16 18 22 28 30 33 32 26 26 30 32 35
18 7 8 8 8 9 11 10 8 8 8 6 3 2 6 9 10 8 5 7 5 4 5 5 5 5 13 11 8 6 7 11 14 15 22 28 31 35 36 31 25 23 26 28
7 7 9 8 7 8 7 12 12 9 6 6 15 7 5 11 9 7 7 5 3 5 5 4 5 4 14 16 9 6 5 8 13 15 21 28 29 33 36 37 32 25 26 26
8 8 8 7 14 25 25 24 26 16 17 16 15 9 10 4 2 5 3 7 6 6 3 7 9 7 15 17 14 8 5 8 11 13 18 24 28 31 33 35 33 33 32 31
5 9 11 19 27 21 18 21 19 25 22 23 15 8 5 7 2 8 9 3 4 3 3 9 7 2 16 19 14 12 8 9 10 11 13 18 23 27 28 31 35 36 37 37
6 8 19 22 25 29 29 28 22 22 23 8 8 6 5 2 3 4 3 2 7 16 14 8 6 2 11 13 11 12 15 11 11 12 11 14 18 20 23 31 30 33 37 39
Wind_Direction_850mb
342 346 352 350 349 348 360 356 267 316 356 256 228 288 343 329 292 219 273 278 279 283 297 291 290 287 291 316 312 301 327 290 286 290 278 225 175 245 342 267 232 249 273 321
343 342 348 346 349 352 348 335 295 326 7 342 325 328 300 268 283 285 289 282 272 304 288 297 292 277 296 295 299 313 353 269 301 288 209 201 217 244 243 244 273 260 270 244
344 343 340 343 348 351 350 332 302 151 39 12 321 338 314 300 265 285 282 277 293 286 291 280 276 286 291 292 290 297 314 268 258 274 293 320 295 274 255 270 263 263 259 263
338 336 335 337 339 346 4 340 36 348 307 328 324 305 286 293 308 264 295 284 279 296 288 300 290 296 300 298 282 263 252 260 272 271 276 275 275 270 265 257 259 260 263 267
340 335 330 332 334 343 12 347 348 326 295 301 293 25 295 305 312 314 289 273 295 301 285 287 289 298 300 263 290 264 229 261 274 275 265 266 268 267 261 257 255 254 259 264
337 336 337 341 341 340 1 316 323 291 301 307 301 305 331 314 316 301 270 285 300 291 287 294 294 287 277 262 245 254 244 264 277 268 274 295 278 267 265 260 254 254 254 260
334 337 342 350 354 2 310 322 296 241 288 290 307 295 298 309 306 291 292 293 283 288 302 299 288 263 256 253 266 240 235 232 250 273 299 259 254 342 316 304 297 288 270 261
331 329 332 344 347 346 306 292 291 237 275 270 294 261 321 296 303 296 298 289 313 306 304 298 306 202 202 211 216 208 224 234 259 240 230 277 295 295 306 309 289 292 275 262
328 325 322 321 318 291 307 285 263 263 280 242 341 303 292 299 306 304 299 318 311 303 283 305 297 346 319 323 327 191 191 214 250 243 249 262 41 163 358 322 276 27 328 313
330 328 325 321 318 268 274 280 269 267 262 276 259 286 302 279 263 268 297 343 317 255 314 350 323 317 332 316 309 318 300 212 223 247 257 262 6 7 323 226 344 322 330 320
329 326 324 320 315 277 270 274 272 261 270 279 275 274 260 249 230 245 302 319 84 288 325 331 7 291 315 291 287 294 288 302 297 261 239 262 1 318 248 332 312 299 305 297
331 327 323 322 317 294 267 274 270 283 263 266 285 278 264 255 253 258 239 272 326 276 306 337 314 277 264 301 290 319 291 258 289 246 299 288 295 257 278 278 274 284 287 280
331 330 325 323 316 308 259 267 277 283 283 298 273 277 276 235 219 224 221 241 217 227 239 302 279 266 277 279 286 311 296 310 262 307 280 294 311 301 302 298 280 283 270 256
328 327 327 326 321 314 299 266 252 264 276 280 269 294 294 272 244 232 230 240 249 265 254 240 256 257 241 274 283 289 269 345 276 259 274 310 266 320 337 327 328 346 297 263
324 324 323 312 310 301 292 281 264 241 234 282 293 304 278 242 225 229 226 230 240 263 261 222 243 252 278 260 269 255 316 328 268 284 302 317 318 337 341 340 341 7 9 352
325 320 317 310 302 295 296 304 232 249 219 259 288 308 274 246 252 226 217 220 225 220 244 239 241 251 234 282 280 332 314 325 327 328 330 313 331 329 344 341 346 15 24 44
324 320 315 308 291 262 211 240 234 294 191 252 281 282 230 230 216 189 192 201 205 214 235 225 248 253 203 250 285 318 340 344 341 339 344 347 355 346 346 345 0 27 50 60
325 323 314 303 295 249 261 264 251 239 205 246 267 268 260 197 229 207 185 191 206 217 245 242 239 261 223 251 327 343 353 339 351 359 11 0 349 349 346 353 7 36 39 48
330 324 312 295 275 227 252 229 267 253 220 263 238 265 302 217 265 257 195 191 215 217 230 240 218 199 242 318 350 5 2 359 358 4 16 2 358 352 355 7 13 31 33 37
335 336 296 254 224 249 280 279 212 203 202 230 248 236 250 302 281 254 210 187 227 235 218 225 244 260 265 260 294 359 19 7 13 16 14 5 353 352 359 8 22 18 27 45
355 334 280 273 272 261 224 241 216 186 221 216 227 226 239 250 248 285 329 325 264 265 89 282 303 270 89 139 144 73 56 27 22 30 17 18 4 360 1 7 18 28 27 35
313 297 292 299 253 224 235 211 208 224 238 187 233 190 221 253 240 256 183 249 236 268 336 266 261 265 138 162 137 99 66 47 26 33 25 20 22 22 26 32 33 33 36 46
310 273 264 238 222 240 228 214 219 215 212 76 114 182 272 224 221 251 233 232 242 327 249 270 280 33 154 160 147 121 78 48 35 43 33 24 28 32 38 43 52 47 43 46
283 276 271 241 213 244 261 294 351 346 111 283 274 195 238 224 178 227 227 155 212 233 232 263 15 265 183 162 170 148 99 61 33 35 38 37 31 28 33 38 47 61 61 54
270 264 257 241 323 314 305 316 320 324 316 312 310 253 173 267 354 258 237 190 233 218 245 29 3 301 200 181 171 181 149 90 55 36 33 36 39 39 39 39 44 55 62 64
272 265 295 315 319 332 338 344 343 333 327 307 269 268 267 228 236 201 203 209 229 354 21 13 340 251 199 197 185 181 180 116 91 67 62 53 53 50 53 50 50 51 60 64
294 283 297 297 314 311 314 322 320 319 308 295 296 253 269 335 271 284 9 188 354 344 11 25 28 134 194 186 186 198 167 151 121 106 78 65 69 72 66 59 55 58 58 66